Temperature
12 11 11 11 11 11 11 11 11 10 11 12 12 12 12 12 13 13 13 13 14 14 14 14 14 14 15 15 15 15 15 15 15 15 16 16 16 16
12 11 11 11 11 11 11 11 10 10 10 11 11 11 12 12 12 12 13 13 13 13 14 14 14 14 14 15 15 15 15 15 15 15 15 16 16 16
11 11 11 11 11 11 11 10 10 10 10 11 11 11 11 11 12 12 12 12 13 13 13 13 14 14 14 14 14 15 15 15 15 15 15 15 15 16
11 11 11 11 11 11 11 10 10 10 10 10 11 11 11 11 11 11 12 12 12 12 13 13 13 13 14 14 14 14 14 14 15 15 15 15 15 15
11 11 11 11 11 11 10 10 10 10 10 10 10 10 11 11 11 11 11 11 12 12 12 12 13 13 13 13 14 14 14 14 15 15 15 15 15 15
11 11 11 11 11 11 10 10 10 10 10 10 10 10 10 10 10 10 11 11 11 11 12 12 12 13 13 13 13 14 14 14 14 15 15 15 15 15
12 11 11 11 11 11 10 10 10 10 10 9 9 10 10 10 10 10 10 10 11 11 11 12 12 12 12 13 13 13 14 14 14 14 15 15 15 15
12 12 11 11 11 11 10 10 10 10 9 9 9 9 10 10 10 9 9 9 10 11 11 11 11 12 12 12 13 13 13 13 14 14 14 14 15 15
12 12 11 11 11 11 10 10 10 10 9 9 9 9 9 9 9 9 9 9 9 10 10 10 11 11 12 12 12 12 13 13 13 13 14 14 14 14
12 11 11 11 11 10 10 10 10 10 9 9 9 9 9 9 9 9 9 9 9 9 9 9 10 11 11 11 12 12 12 13 13 13 13 14 14 14
12 12 11 11 11 10 10 10 10 10 10 9 9 9 9 9 9 8 8 8 8 9 9 9 10 10 11 11 11 12 12 12 12 13 13 13 14 14
12 12 11 11 11 11 10 10 10 10 10 9 9 9 9 9 9 8 8 8 8 8 9 9 9 9 9 10 11 11 11 12 12 12 12 13 13 13
12 12 12 11 11 10 10 10 10 10 9 9 9 9 9 9 9 9 8 8 8 8 9 8 8 9 9 9 10 10 11 11 11 12 12 12 12 13
12 12 11 11 11 10 10 10 10 9 9 9 9 9 9 9 9 9 8 8 8 8 8 8 8 8 8 8 9 10 10 10 11 11 11 12 12 12
12 12 11 11 11 11 10 10 10 9 9 9 9 9 9 9 8 8 8 8 8 8 8 8 8 8 8 8 8 9 10 10 10 11 11 11 11 12
12 12 11 11 11 11 10 10 10 9 9 9 9 9 9 8 8 8 8 8 8 8 8 8 8 8 8 8 8 9 9 9 10 10 10 11 11 11
11 11 11 11 11 11 10 10 10 9 9 9 9 8 8 8 8 8 8 8 7 8 8 8 8 8 8 8 8 8 9 9 10 10 10 10 11 11
11 11 11 11 11 10 10 10 9 9 9 8 8 8 8 8 8 8 8 7 7 8 8 8 8 8 8 8 8 8 9 9 9 9 9 10 10 11
10 11 11 11 10 10 10 10 9 9 9 8 8 8 8 8 8 7 7 7 7 7 8 8 7 7 7 7 8 9 9 9 9 9 9 9 10 11
10 10 10 10 10 10 10 9 9 9 8 8 8 8 8 8 7 7 7 7 7 7 7 7 7 7 7 8 8 8 9 9 9 9 9 9 10 10
10 10 10 10 10 9 9 9 9 9 8 8 8 8 8 7 7 7 7 7 7 7 7 7 8 8 8 7 7 8 9 9 9 9 9 9 9 9
9 9 9 9 9 9 9 9 8 8 8 8 8 8 8 7 7 7 7 7 7 7 7 8 8 7 7 7 8 8 8 8 9 9 9 9 9 9
9 9 9 9 9 9 8 8 8 8 8 8 8 8 8 7 7 7 7 7 7 7 7 7 7 7 7 7 8 8 8 8 8 8 8 9 9 9
Wind_Speed
3 3 3 3 3 4 4 4 3 3 4 3 3 3 5 7 9 8 8 9 10 10 11 11 11 12 14 15 17 20 22 24 25 26 27 29 30 30
3 4 4 3 3 3 4 4 5 5 5 3 4 4 6 8 9 8 9 11 11 12 12 12 12 12 13 14 16 17 20 21 23 25 26 27 29 29
4 4 5 4 4 4 4 4 5 5 6 6 4 4 4 7 8 8 9 9 9 12 12 13 13 13 14 15 16 17 19 21 22 23 25 27 28 29
6 5 6 5 6 5 4 5 5 6 6 8 5 4 5 6 6 7 7 7 8 11 13 13 13 14 15 15 16 17 19 20 21 23 24 25 27 28
7 7 7 6 7 6 6 6 6 6 6 6 6 4 4 4 5 5 6 6 8 9 11 12 13 14 14 14 15 16 18 20 21 22 23 24 26 27
8 8 8 8 9 8 7 7 7 6 6 7 7 6 6 5 4 5 6 4 5 6 8 9 10 11 12 13 14 15 16 18 20 20 22 23 25 26
8 8 9 10 12 10 8 8 7 7 6 7 7 6 6 5 6 4 5 6 5 4 5 5 5 6 7 10 12 14 15 16 18 20 21 22 23 25
9 9 9 11 12 13 14 13 10 9 9 7 7 8 10 8 7 6 5 5 5 3 3 5 4 6 6 8 10 13 14 16 18 19 20 21 22 23
10 10 9 9 10 9 11 12 13 14 15 11 11 12 10 9 7 7 7 7 7 5 3 6 5 7 6 9 12 13 14 15 17 18 19 20 21 22
11 11 11 11 10 10 10 10 10 11 11 11 12 13 12 10 9 9 8 7 7 6 5 6 6 6 7 8 12 13 13 14 15 16 17 19 20 21
11 11 11 12 14 13 10 11 12 11 11 14 15 14 15 15 10 6 6 6 7 6 5 5 5 6 6 7 8 12 13 13 14 14 15 17 17 17
10 10 13 15 15 13 11 11 12 12 10 8 9 10 11 12 12 11 10 9 7 6 6 6 5 4 4 4 4 5 7 9 11 11 13 14 14 11
9 9 9 14 16 16 13 12 14 12 9 9 8 8 8 8 9 9 10 10 10 9 6 5 5 4 5 4 3 4 4 4 5 6 9 11 13 12
11 10 10 13 14 14 12 13 15 12 8 8 8 9 9 9 9 9 10 12 12 13 10 8 7 7 7 7 6 4 4 4 4 5 4 6 8 11
11 13 14 13 12 11 14 15 12 9 8 9 10 11 10 9 8 6 8 9 11 13 13 13 11 10 9 9 8 7 5 5 5 5 5 4 4 5
11 11 12 12 11 12 11 10 9 9 9 10 10 10 8 7 8 7 7 6 6 8 10 13 13 12 10 11 10 9 7 5 4 5 5 4 5 5
6 5 6 6 7 8 8 8 8 8 9 10 10 10 9 9 9 7 7 7 7 8 8 6 8 10 11 9 9 10 9 8 7 6 5 5 6 6
6 7 9 9 10 10 9 9 8 9 9 9 10 10 9 9 9 7 7 8 9 9 9 7 6 5 6 8 12 11 9 9 8 7 6 6 6 6
8 10 11 11 10 10 10 10 9 9 8 9 9 9 9 9 8 8 8 8 9 10 10 8 8 8 9 9 8 13 11 9 7 7 7 7 7 6
9 11 11 11 10 10 10 10 10 9 8 8 9 9 9 9 9 9 9 10 9 9 9 9 10 11 12 11 8 6 13 11 8 9 7 6 4 3
9 10 11 11 10 10 10 10 10 9 9 8 8 9 9 9 9 10 9 11 11 9 10 10 11 12 9 6 6 7 6 11 10 7 7 6 5 4
10 10 10 11 10 10 9 9 9 9 9 9 9 9 9 9 10 11 10 10 10 10 11 9 8 7 8 9 10 10 8 5 7 7 6 5 5 6
11 10 10 10 10 9 9 10 11 9 9 8 8 8 9 9 9 9 9 10 9 10 10 8 7 7 9 10 10 9 9 7 5 5 3 2 5 5
Wind_Direction
231 228 229 234 223 223 219 209 218 265 282 270 275 290 298 300 300 299 294 291 287 281 276 271 265 256 249 246 243 240 236 231 229 229 229 229 227 227
232 233 240 244 237 228 222 221 218 231 260 262 258 278 292 295 296 294 291 292 288 281 276 271 264 260 257 252 248 243 237 233 230 228 228 229 228 228
249 241 249 248 247 243 230 226 223 219 250 270 257 269 276 281 293 294 290 285 284 280 277 272 264 257 256 254 250 246 240 236 233 231 229 229 228 227
253 249 255 254 249 246 238 237 234 225 236 267 273 269 262 272 280 287 290 287 282 283 280 275 268 260 254 251 250 247 243 238 235 234 232 231 229 228
250 248 253 250 254 250 243 243 244 242 232 250 269 265 267 270 278 283 284 283 285 281 281 277 271 265 258 253 251 247 243 240 238 237 236 234 231 229
250 247 248 244 248 250 248 244 244 246 242 247 262 268 268 270 264 272 283 281 286 289 281 277 270 267 262 257 253 248 244 242 240 239 238 236 234 231
257 251 249 246 244 243 246 245 241 244 247 249 259 266 267 264 259 255 270 284 283 268 279 277 270 267 267 263 256 252 248 245 244 242 239 237 235 233
259 261 258 257 256 251 248 246 235 239 245 246 253 257 263 260 257 253 257 270 280 256 263 280 271 271 265 259 258 256 252 248 244 242 240 239 236 234
253 258 262 259 252 256 258 259 252 243 236 240 250 253 258 254 248 252 243 243 252 258 262 277 268 267 264 262 260 259 256 252 247 242 239 238 236 234
250 249 253 261 258 250 256 262 261 256 246 241 245 251 253 253 243 248 255 256 258 255 233 260 269 266 268 264 259 256 256 254 250 243 239 237 235 233
254 249 245 253 255 246 248 257 264 266 257 244 242 248 251 248 238 236 239 241 259 259 218 234 262 267 266 262 256 249 250 253 251 245 240 237 233 228
260 253 242 243 250 246 243 247 257 263 264 265 258 258 257 255 239 229 233 239 250 259 225 216 245 250 271 258 255 251 249 249 249 249 243 237 229 219
258 259 253 240 242 246 239 240 246 253 263 263 266 267 263 256 248 235 229 230 238 244 230 207 237 236 248 272 275 259 249 253 251 248 243 234 224 212
254 257 255 247 244 246 244 242 245 249 255 256 259 260 258 254 250 243 235 232 236 244 243 223 237 243 248 260 267 264 253 249 245 246 242 226 222 221
250 251 253 256 256 256 249 245 245 244 242 246 251 254 253 253 254 251 246 238 241 246 246 235 236 242 242 249 255 258 264 258 237 236 234 228 221 209
252 256 257 257 253 253 258 254 243 237 235 243 250 255 256 251 248 245 248 242 243 251 241 235 232 232 237 241 246 251 249 247 237 229 228 234 229 218
252 254 254 253 254 253 253 253 248 241 239 241 245 250 252 251 250 240 237 234 236 248 250 234 227 228 232 235 239 244 245 245 240 230 228 238 237 224
234 248 252 251 252 253 254 255 248 243 241 240 241 243 246 247 248 240 231 232 238 243 245 242 225 221 229 237 226 239 241 240 234 223 220 231 240 227
229 246 250 251 251 251 250 250 252 250 242 238 240 241 242 242 241 240 235 234 238 242 243 237 224 222 233 243 229 213 227 233 225 221 219 223 234 227
235 246 250 250 249 251 251 250 252 252 244 240 239 239 237 236 238 238 236 234 237 240 241 234 225 222 228 238 239 225 212 221 221 221 221 222 227 207
248 248 251 251 250 249 248 249 249 248 244 239 239 238 235 232 235 236 236 234 235 238 239 239 233 222 229 234 237 235 226 213 217 221 212 208 208 199
257 254 252 251 248 248 247 246 247 247 245 242 241 241 236 232 235 236 234 234 233 233 240 244 236 215 213 222 232 238 234 219 214 216 211 208 199 200
262 260 256 252 247 245 243 242 244 246 244 243 242 241 237 234 234 235 235 235 237 235 235 236 227 218 220 222 229 233 231 218 206 201 209 253 234 232
Height
1541 1541 1540 1540 1540 1539 1539 1539 1538 1536 1534 1534 1535 1535 1535 1534 1534 1534 1534 1535 1535 1535 1535 1535 1536 1537 1538 1540 1541 1544 1546 1549 1552 1555 1559 1562 1566 1569
1538 1538 1537 1537 1536 1536 1535 1535 1534 1534 1531 1530 1530 1530 1530 1530 1530 1529 1529 1530 1530 1530 1530 1530 1530 1531 1531 1533 1534 1536 1539 1542 1545 1548 1551 1554 1558 1562
1536 1535 1534 1534 1533 1533 1532 1531 1530 1530 1527 1526 1526 1526 1525 1525 1525 1525 1524 1524 1524 1524 1524 1524 1524 1525 1525 1526 1528 1530 1532 1534 1537 1540 1543 1546 1550 1554
1533 1532 1531 1530 1529 1529 1528 1527 1526 1525 1524 1521 1521 1521 1520 1520 1519 1519 1519 1518 1518 1518 1518 1518 1518 1519 1519 1520 1521 1523 1524 1527 1529 1532 1535 1538 1542 1545
1529 1528 1527 1526 1525 1524 1523 1523 1522 1521 1519 1518 1516 1515 1515 1515 1514 1513 1513 1512 1512 1512 1512 1512 1512 1513 1513 1514 1515 1516 1517 1519 1522 1524 1526 1529 1533 1536
1525 1524 1523 1522 1521 1520 1519 1518 1517 1516 1514 1513 1511 1510 1510 1509 1509 1508 1507 1507 1506 1506 1506 1506 1506 1506 1507 1507 1508 1509 1510 1512 1513 1516 1518 1521 1524 1528
1520 1519 1518 1517 1516 1515 1513 1512 1511 1510 1509 1507 1506 1505 1504 1504 1503 1502 1501 1501 1500 1500 1499 1499 1499 1499 1500 1501 1501 1502 1503 1504 1506 1508 1510 1513 1515 1519
1515 1514 1513 1512 1510 1509 1508 1507 1506 1504 1503 1502 1500 1499 1498 1498 1498 1497 1496 1495 1494 1495 1493 1493 1493 1493 1493 1494 1494 1495 1496 1497 1498 1500 1502 1504 1507 1510
1510 1508 1507 1506 1505 1504 1502 1501 1500 1499 1498 1496 1494 1493 1493 1493 1492 1491 1490 1489 1488 1489 1488 1486 1487 1486 1487 1487 1487 1488 1488 1489 1491 1492 1494 1496 1499 1501
1504 1503 1501 1500 1499 1498 1496 1494 1493 1492 1491 1490 1488 1487 1487 1487 1486 1485 1484 1483 1482 1483 1482 1480 1480 1480 1480 1480 1480 1481 1481 1482 1483 1484 1486 1488 1490 1493
1498 1496 1495 1494 1493 1492 1489 1487 1486 1485 1485 1483 1482 1481 1480 1480 1479 1478 1478 1477 1475 1475 1476 1475 1473 1473 1472 1472 1473 1474 1474 1475 1476 1477 1478 1480 1482 1484
1491 1490 1489 1487 1486 1485 1483 1481 1479 1478 1478 1476 1475 1474 1473 1472 1472 1472 1471 1470 1469 1469 1469 1469 1468 1468 1466 1465 1466 1467 1468 1468 1469 1470 1471 1473 1474 1476
1484 1482 1482 1481 1479 1478 1476 1474 1472 1471 1470 1468 1467 1466 1466 1465 1465 1464 1464 1463 1463 1462 1463 1463 1463 1462 1462 1460 1460 1461 1462 1462 1463 1463 1464 1466 1467 1469
1476 1475 1474 1473 1472 1470 1468 1467 1465 1464 1462 1460 1459 1458 1458 1457 1457 1457 1456 1456 1455 1455 1456 1457 1456 1456 1456 1455 1455 1455 1456 1456 1457 1458 1458 1459 1460 1462
1469 1468 1467 1466 1464 1462 1461 1459 1458 1456 1454 1452 1451 1450 1450 1450 1449 1449 1448 1448 1447 1448 1448 1449 1449 1450 1450 1450 1449 1450 1450 1450 1451 1452 1453 1454 1455 1456
1462 1461 1459 1458 1456 1454 1453 1451 1450 1448 1446 1444 1443 1443 1442 1442 1441 1441 1440 1440 1439 1440 1441 1442 1442 1443 1443 1443 1444 1444 1445 1445 1445 1447 1447 1448 1449 1451
1454 1452 1450 1449 1447 1446 1444 1443 1441 1440 1438 1437 1435 1435 1434 1433 1433 1433 1432 1432 1432 1432 1433 1435 1435 1436 1436 1437 1437 1438 1438 1439 1440 1441 1442 1442 1444 1445
1445 1442 1441 1440 1438 1437 1435 1434 1432 1431 1430 1428 1427 1426 1425 1425 1425 1425 1425 1425 1424 1425 1426 1427 1428 1429 1430 1430 1431 1431 1432 1433 1434 1436 1436 1437 1438 1440
1435 1433 1432 1430 1429 1428 1426 1425 1423 1423 1422 1420 1419 1418 1418 1417 1417 1417 1417 1417 1417 1417 1418 1420 1421 1422 1422 1423 1423 1425 1426 1427 1428 1430 1431 1432 1433 1435
1426 1424 1422 1421 1420 1418 1417 1416 1415 1414 1413 1412 1411 1411 1410 1410 1410 1410 1410 1410 1410 1410 1411 1412 1413 1414 1415 1417 1418 1419 1421 1422 1423 1424 1425 1427 1429 1430
1417 1415 1413 1412 1410 1409 1408 1407 1407 1406 1405 1405 1404 1403 1403 1403 1403 1403 1403 1403 1403 1403 1404 1404 1406 1408 1409 1411 1412 1412 1414 1416 1417 1419 1420 1422 1423 1424
1408 1406 1404 1403 1401 1400 1399 1399 1398 1398 1397 1397 1397 1396 1396 1396 1396 1396 1396 1396 1396 1396 1397 1398 1400 1402 1403 1404 1405 1406 1408 1410 1412 1413 1415 1416 1417 1419
1399 1397 1395 1394 1393 1392 1391 1390 1390 1390 1390 1389 1389 1389 1389 1389 1389 1389 1389 1389 1390 1390 1391 1392 1393 1395 1396 1397 1399 1401 1403 1404 1406 1408 1409 1411 1413 1415